Meteo Giornale » Osservazioni meteo Italia » Bologna-Borgo Panigale

ore: 20:50 - Osservazioni Meteo Bologna-Borgo Panigale
Lat. 44° 32' N Lon. 11° 18' E Alt. 36 metri s.l.m.

sereno Europe/Rome

18 °C

Sereno

Temp. 24 Ore

15 °C

25 °C

Ovest

11.1 Km/h

Dew point 15 °C

Umidità 82 %

Visibilità  10 Km

Il sole sorge alle ore 05:35

Il sole tramonta alle ore 20:47

Data e Ora Cielo e Fenomeni T °C DP °C Um. % Pres. hPa Vis. km Vento km/h
Oggi h: 20:50 sereno Sereno 18 15 82 1014 10 O 11.1
Oggi h: 20:20 sereno Sereno 18 15 82 1013 10 O 7.4
Oggi h: 19:50 poco_nuvoloso Poco Nuvoloso 19 14 72 1013 10 N/NE 11.1
Oggi h: 19:20 poco_nuvoloso Poco Nuvoloso 19 15 77 1013 10 NE 13
Oggi h: 18:20 nuvoloso_temporali Temporale nelle Vicinanze 18 15 82 1013 10 N 11.1
Oggi h: 17:50 coperto_temporali Temporale 18 15 82 1013 10 N 3.7
Oggi h: 17:20 nuvoloso_temporali Temporale con Pioggia Debole 18 14 77 1012 4 O 18.5
Oggi h: 16:50 coperto_temporali Temporale 20 17 82 1012 4 O/NO 7.4
Oggi h: 16:20 nuvoloso_temporali Temporale con Pioggia 22 16 68 1012 10 E 13
Oggi h: 15:50 molto_nuvoloso Rovescio nelle Vicinanze 24 14 53 1012 10 E 7.4
Oggi h: 15:20 nuvoloso Nuvoloso 24 14 53 1012 10 N 5.5
Oggi h: 14:50 poco_nuvoloso Poco Nuvoloso 25 15 53 1012 10 N 5.5
Oggi h: 14:20 poco_nuvoloso Poco Nuvoloso 24 15 57 1013 10 N 7.4
Oggi h: 13:50 poco_nuvoloso Poco Nuvoloso 25 15 53 1013 10 N 5.5
Oggi h: 13:20 sereno Sereno 24 15 57 1013 10 NE 11.1
Oggi h: 12:50 sereno Sereno 23 14 56 1014 10 N/NE 9.3
Oggi h: 12:20 sereno Sereno 23 14 56 1014 10 N 5.5
Oggi h: 11:50 sereno Sereno 23 13 53 1014 10 N 7.4
Oggi h: 11:20 sereno Sereno 23 14 56 1014 10 N/NO 9.3
Oggi h: 10:50 sereno Sereno 22 13 56 1014 10 O/SO 7.4
Oggi h: 10:20 sereno Sereno 21 12 56 1014 10 O 9.3
Oggi h: 09:50 sereno Sereno 21 13 60 1014 10 O/NO 7.4
Oggi h: 09:20 sereno Sereno 20 12 59 1014 10 O 7.4
Oggi h: 08:50 sereno Sereno 19 12 63 1014 10 N 5.5
Oggi h: 08:20 sereno Sereno 18 13 72 1014 10 SO 7.4
Oggi h: 07:50 sereno Sereno 17 12 72 1013 10 O/SO 7.4
Oggi h: 07:20 sereno Sereno 17 12 72 1013 10 S 11.1
Oggi h: 06:50 sereno Sereno 16 12 77 1013 10 S/SO 11.1
Oggi h: 06:20 sereno Sereno 15 11 76 1013 10 S/SO 11.1
Oggi h: 05:50 sereno Sereno 15 11 76 1012 10 S/SO 13
Oggi h: 05:20 sereno Sereno 16 12 77 1012 10 S/SO 11.1
Oggi h: 04:50 sereno Sereno 15 12 82 1012 10 S/SO 9.3
Oggi h: 04:20 sereno Sereno 15 12 82 1012 10 S 9.3
Oggi h: 03:50 sereno Sereno 16 12 77 1012 10 SO 7.4
Oggi h: 03:20 sereno Sereno 16 12 77 1012 10 O/SO 11.1
Oggi h: 02:50 sereno Sereno 17 12 72 1012 10 N 1.8
Oggi h: 02:20 sereno Sereno 17 12 72 1012 10 S/SO 9.3
Oggi h: 01:50 sereno Sereno 18 12 67 1012 10 S/SO 7.4
Oggi h: 01:20 sereno Sereno 18 12 67 1012 10 S/SO 11.1
Oggi h: 00:50 sereno Sereno 18 12 67 1012 10 S/SO 11.1
Oggi h: 00:20 sereno Sereno 18 12 67 1012 10 S/SO 11.1
Ieri h: 23:50 sereno Sereno 18 12 67 1012 10 S/SO 13
Ieri h: 23:20 sereno Sereno 19 13 68 1012 10 S/SO 13
Ieri h: 22:20 sereno Sereno 19 13 68 1012 10 S/SO 9.3
Ieri h: 21:50 sereno Sereno 20 14 68 1011 10 S/SO 11.1